sat.trackr.live / text

‹ back to catalog

STARLINK-5999

NORAD 56909 · 2023-083AK

PAYLOAD ACTIVE UNKNOWN

§ Identity

Operator
Country
US
Launch date
2023-06-12
Launch site
AFETR
Launch vehicle
Mass (kg)
RCS (m²)

Purposes: comms

External: N2YO · Heavens-Above · Gunter

§ Orbital elements

Epoch: 2026-09-20T16:10:54.565824Z

Period
94.27 min
Inclination
43.0049°
Eccentricity
0.0002029
Mean motion
15.27573942 rev/d
Perigee alt
481.7 km
Apogee alt
484.5 km
Semi-major
6,861.2 km
B*
2.9687e-6
RAAN
49.9298°
Arg perigee
273.5964°
Mean anomaly
86.4655°
Rev number
18,172

§ Raw data

STARLINK-59991 56909U 23083AK  26263.67424266 -.00000181  00000+0  29687-5 0  99982 56909  43.0049  49.9298 0002029 273.5964  86.4655 15.27573942181729

JSON: /api/v1/satellites/56909 · /tle

For live sub-satellite position, see the globe view (requires WebGL).

§ Visibility from observer

Set your observer location to see the next 7 days of passes ≥ 10°. The values pass through the URL so the page stays shareable.

No JS? Fill the form by hand. The geolocation button needs JavaScript.